This is the latest recevied weather packets stored in our database for station/object OE6PWE-13. If no packets are shown the sender has not sent any weather packets the latest 10 day(s).
| Time | Temp. | Humidity | Pressure | Rain* | Wind** | Luminosity | Snow |
|---|---|---|---|---|---|---|---|
| 1788293712 | 16.67° C | 93% | 1021 hPa | 0 mm | - | - | - |
| 1788291012 | 17.78° C | 89% | 1020 hPa | 0 mm | - | - | - |
| 1788290112 | 17.78° C | 88% | 1020 hPa | 0 mm | - | - | - |
| 1788287412 | 20° C | 79% | 1020 hPa | 0 mm | - | - | - |
| 1788286512 | 20.56° C | 78% | 1019 hPa | 0 mm | - | - | - |
| 1788283812 | 22.78° C | 71% | 1019 hPa | 0 mm | - | - | - |
| 1788282911 | 23.89° C | 64% | 1019 hPa | 0 mm | - | - | - |
| 1788282012 | 25° C | 60% | 1018 hPa | 0 mm | - | - | - |
| 1788281111 | 26.11° C | 57% | 1018 hPa | 0 mm | - | - | - |
| 1788280211 | 26.67° C | 53% | 1018 hPa | 0 mm | - | - | - |
| 1788279312 | 27.22° C | 53% | 1018 hPa | 0 mm | - | - | - |
| 1788278412 | 27.78° C | 51% | 1018 hPa | 0 mm | - | - | - |
| 1788276612 | 27.22° C | 50% | 1018 hPa | 0 mm | - | - | - |
| 1788273912 | 27.78° C | 51% | 1018 hPa | 0 mm | - | - | - |
| 1788273012 | 27.78° C | 49% | 1018 hPa | 0 mm | - | - | - |
| 1788272111 | 27.22° C | 48% | 1018 hPa | 0 mm | - | - | - |
| 1788271212 | 27.22° C | 52% | 1019 hPa | 0 mm | - | - | - |
| 1788270311 | 27.22° C | 50% | 1018 hPa | 0 mm | - | - | - |
| 1788269411 | 27.22° C | 49% | 1019 hPa | 0 mm | - | - | - |
| 1788268512 | 28.33° C | 47% | 1019 hPa | 0 mm | - | - | - |
| 1788267611 | 27.78° C | 48% | 1019 hPa | 0 mm | - | - | - |
| 1788266711 | 27.22° C | 51% | 1019 hPa | 0 mm | - | - | - |
| 1788265811 | 27.22° C | 52% | 1019 hPa | 0 mm | - | - | - |
| 1788264912 | 27.22° C | 51% | 1019 hPa | 0 mm | - | - | - |
| 1788264012 | 26.67° C | 55% | 1020 hPa | 0 mm | - | - | - |
* Rain latest hour (hover to see other rain measurements)
** Current wind speed in m/s (hover to see current wind gust speed)